IRIDIUM 164

Last updated on Sun Jun 21 2026 00:03:14 GMT+0000 (Coordinated Universal Time)

1 43577U 18061J 26171.37752869 .00000017 00000+0 -10898-5 0 9995 2 43577 86.3958 55.4358 0002169 89.5185 270.6259 14.34217185413871
UTC large
Height (km)
Speed (km/s)
/
Latitude / Longitude
Inclination (degrees)
Orbital Period (minutes)
Azimuth
Elevation
Range (km)
Doppler Factor

Next 0 passes for location: London (51.5072 / 0.1276)

No passes found over London.
IRIDIUM 164